Change the Weather History Date:

Tuesday, March 5, 2013

  Actual Average Record
Temperature  
Mean Temperature 38 °F 45 °F  
Max Temperature 46 °F 57 °F 79 °F (1991)
Min Temperature 30 °F 33 °F 10 °F (1960)
Degree Days  
Heating Degree Days 27 20  
Month to date heating degree days 135 103  
Since 1 July heating degree days 3206 3406  
Cooling Degree Days 0 0  
Month to date cooling degree days 0 0  
Year to date cooling degree days 0 0  
Moisture  
Dew Point 25 °F    
Average Humidity 69    
Maximum Humidity 100    
Minimum Humidity 37    
Precipitation  
Precipitation 0.01 in 0.12 in 2.47 in (1959)
Month to date precipitation 0.01 0.58  
Year to date precipitation 5.86 6.23  
Sea Level Pressure  
Sea Level Pressure 30.18 in    
Wind  
Wind Speed 16 mph (NW)    
Max Wind Speed 26 mph    
Max Gust Speed 36 mph    
Visibility 10 miles    
Events      
T = Trace of Precipitation, MM = Missing Value Source: NWS Daily Summary

Daily Weather History Graph

Daily Weather History Graph

Search for Another Location

Airport or City:

Trip Planner

Search our weather history database for the weather conditions in past years. The results will help you decide how hot, cold, wet, or windy it might be!

Date:

Astronomy

Mar. 05, 2013 Rise Set
Actual Time 6:41 AM CST 6:15 PM CST
Civil Twilight 6:15 AM CST 6:41 PM CST
Nautical Twilight 5:45 AM CST 7:10 PM CST
Astronomical Twilight 5:16 AM CST 7:40 PM CST
Moon 1:45 AM CST (3/5) 12:03 PM CST (3/5)
Length of Visible Light 12h 25m
Length of Day
11h 34m
Last Quarter, 40% of the Moon is Illuminated
Mar 5
Last Quarter
Mar 11
New
Mar 19
First Quarter
Mar 27
Full
Apr 2
Last Quarter

Hourly Weather History & Observations

Time (CST) Temp. Windchill Dew Point Humidity Pressure Visibility Wind Dir Wind Speed Gust Speed Precip Events Conditions
1:53 AM 42.1 °F 34.9 °F 32.0 °F 67% 29.94 in 10.0 mi NNW 13.8 mph - N/A   Overcast
2:53 AM 41.0 °F 33.1 °F 32.0 °F 70% 29.97 in 10.0 mi NNW 15.0 mph 23.0 mph N/A   Overcast
3:53 AM 37.0 °F 27.0 °F 33.1 °F 86% 30.03 in 7.0 mi NW 18.4 mph 25.3 mph N/A   Overcast
4:10 AM 37.4 °F 28.9 °F 33.8 °F 87% 30.03 in 6.0 mi NW 13.8 mph - 0.00 in   Overcast
4:53 AM 36.0 °F 27.5 °F 34.0 °F 93% 30.04 in 6.0 mi NNW 12.7 mph 20.7 mph 0.00 in   Overcast
5:53 AM 36.0 °F 25.6 °F 36.0 °F 100% 30.08 in 10.0 mi NNW 18.4 mph 23.0 mph 0.01 in   Overcast
6:53 AM 35.6 °F 26.6 °F 35.6 °F 100% 30.11 in 10.0 mi NNW 13.8 mph 25.3 mph N/A   Overcast
7:53 AM 36.0 °F 28.0 °F 36.0 °F 100% 30.13 in 10.0 mi NW 11.5 mph 19.6 mph N/A   Overcast
8:53 AM 37.0 °F 27.4 °F 28.9 °F 73% 30.17 in 10.0 mi NW 17.3 mph 25.3 mph N/A   Mostly Cloudy
9:53 AM 37.0 °F 25.9 °F 19.9 °F 50% 30.20 in 10.0 mi NW 23.0 mph 29.9 mph N/A   Partly Cloudy
10:53 AM 37.9 °F 26.8 °F 17.1 °F 43% 30.22 in 10.0 mi NNW 24.2 mph 31.1 mph N/A   Clear
11:53 AM 39.0 °F 29.0 °F 17.1 °F 41% 30.23 in 10.0 mi NW 20.7 mph 31.1 mph N/A   Clear
12:53 PM 41.0 °F 31.4 °F 19.0 °F 41% 30.22 in 10.0 mi NNW 21.9 mph 29.9 mph N/A   Clear
1:53 PM 43.0 °F 34.0 °F 19.9 °F 40% 30.22 in 10.0 mi NW 21.9 mph 28.8 mph N/A   Clear
2:53 PM 45.0 °F 37.1 °F 19.0 °F 36% 30.21 in 10.0 mi NNW 19.6 mph 28.8 mph N/A   Clear
3:53 PM 45.0 °F 37.4 °F 19.9 °F 37% 30.22 in 10.0 mi WNW 18.4 mph 27.6 mph N/A   Clear
4:53 PM 44.1 °F 36.5 °F 19.9 °F 38% 30.23 in 10.0 mi NW 17.3 mph - N/A   Clear
5:53 PM 42.1 °F 34.9 °F 19.9 °F 41% 30.24 in 10.0 mi NW 13.8 mph 21.9 mph N/A   Clear
6:53 PM 39.0 °F 30.3 °F 19.9 °F 46% 30.25 in 10.0 mi NW 16.1 mph 21.9 mph N/A   Clear
7:53 PM 37.0 °F 29.8 °F 21.0 °F 52% 30.27 in 10.0 mi NW 10.4 mph - N/A   Clear
8:53 PM 36.0 °F 28.0 °F 21.0 °F 55% 30.30 in 10.0 mi NW 11.5 mph - N/A   Clear
9:53 PM 34.0 °F 26.6 °F 21.9 °F 61% 30.32 in 10.0 mi NNW 9.2 mph - N/A   Clear
10:53 PM 32.0 °F 22.5 °F 21.0 °F 64% 30.34 in 10.0 mi NNW 12.7 mph 19.6 mph N/A   Clear
11:53 PM 30.0 °F 22.4 °F 19.0 °F 64% 30.34 in 10.0 mi NNW 8.1 mph - N/A   Clear